[[{"header":{"parameterUnit":"m.s-1","parameterCategory":1,"la1":30.2991,"la2":30.254,"lo1":-89.0895,"lo2":-89.0444,"dx":0.0017,"dy":0.0017,"nx":28,"ny":28,"refTime":"2022-12-23T15:00:00:Z","depth":0,"parameterNumber":2,"parameterNumberName":"U-component_of_WINDS"},"data":[0,0,0,0,0,0,0,0,0,0,0,0,0,0,0,0,0,0,0,0,0,0,0,0,0,0,0,0,0,0,0,0,0,0,0,0,0,0,0,0,0,0,0,0,0,0,0,0,0,0,0,0,0,0,0,0,0,0,4.2405,4.2405,0,4.2446,4.2446,4.2447,4.2393,4.2391,4.2389,4.2387,4.2427,4.243,4.2433,0,0,0,0,0,0,0,0,0,0,0,0,0,4.2278,4.2281,4.2405,4.2405,4.2406,4.2446,4.2446,4.2447,4.2393,4.2391,4.2389,4.2386,4.2426,4.243,4.2433,0,0,0,0,0,0,0,0,0,0,0,0,0,4.2328,4.2282,4.2405,4.2384,4.2382,4.2446,4.2446,4.2447,4.2394,4.2391,4.2388,4.2385,4.2425,4.2429,4.2434,4.2519,0,0,4.2447,4.2449,0,0,0,0,0,0,0,0,4.2325,4.2332,4.2386,4.2385,4.2384,4.2411,4.2416,4.2471,4.2394,4.2389,4.2387,4.2384,4.2424,4.2428,4.2442,4.2521,4.2522,4.2447,4.245,4.2452,4.2453,0,0,0,0,0,0,0,4.2321,4.233,4.2421,4.2387,4.2386,4.2372,4.2376,4.2427,4.2423,4.239,4.2386,4.2392,4.2423,4.2438,4.2443,4.2523,4.2447,4.2451,4.2454,4.2455,4.2673,4.2676,0,0,0,0,0,0,4.2321,4.2328,4.242,4.2422,4.2347,4.2377,4.2381,4.2405,4.2422,4.2422,4.2394,4.2389,4.2432,4.2438,4.2444,4.2545,4.2452,4.2456,4.2458,4.267,4.2674,4.2677,0,0,0,0,0,0,4.2318,4.2329,4.2418,4.2374,4.2384,4.2382,4.241,4.2408,4.2423,4.2425,4.2424,4.2411,4.243,4.2438,4.2501,4.2545,4.2458,4.2461,4.2666,4.2671,4.2676,4.2747,0,0,0,0,0,0,4.2315,4.2329,4.2361,4.2375,4.2387,4.2475,4.2413,4.2411,4.2431,4.2425,4.2441,4.244,4.2429,4.2495,4.2505,4.255,4.2465,4.2662,4.2668,4.2674,4.274,4.2753,4.2765,0,0,0,0,0,4.231,4.2379,4.2363,4.2375,4.2427,4.2477,4.2484,4.247,4.2435,4.2467,4.2469,4.244,4.2539,4.2502,4.2513,4.2559,4.2659,4.2667,4.2674,4.2735,4.2751,4.2764,0,0,0,0,0,0,4.2369,4.238,4.2363,4.2438,4.2457,4.2468,4.2508,4.2487,4.2515,4.2508,4.2489,4.2493,4.256,4.2566,4.2524,4.2643,4.2593,4.2603,4.2636,4.2651,4.2663,4.266,4.2468,0,0,0,0,0,4.2392,4.2432,4.2439,4.2505,4.2515,4.2511,4.2532,4.2519,4.2538,4.2545,4.2551,4.257,4.2605,4.2629,4.2661,4.2742,4.2744,4.2779,4.2791,4.2801,4.281,4.2852,4.2868,4.2701,4.2701,4.2701,0,0,4.2437,4.2448,4.2474,4.2517,4.253,4.2571,4.2517,4.2563,4.2594,4.2552,4.2611,4.2617,4.2636,4.2708,4.274,4.2716,4.2857,4.2811,4.2818,4.2821,4.2861,4.2877,4.2891,4.2706,4.2705,4.2704,0,0,4.254,4.2553,4.2609,4.2624,4.2646,4.2642,4.2656,4.267,4.2673,4.2733,4.2702,4.2738,4.2799,4.2815,4.283,4.2942,4.2916,4.2953,4.3016,4.3058,4.3071,4.3082,4.3121,4.3136,4.2962,4.2962,4.2962,0,4.2594,4.2655,4.2641,4.2689,4.2709,4.2675,4.2731,4.2746,4.2777,4.2791,4.2763,4.284,4.2851,4.2926,4.2953,4.2968,4.2982,4.295,4.307,4.3082,4.3092,4.3129,4.3144,4.2966,4.2966,4.2965,4.2965,0,4.272,4.2763,4.2806,4.2838,4.2862,4.2915,4.2908,4.2934,4.292,4.292,4.2982,4.2994,4.3028,4.3046,4.3032,4.3119,4.3103,4.3073,4.3023,4.3113,4.3147,4.3161,4.2972,4.2971,4.297,4.2969,0,0,4.286,4.2884,4.29,4.2914,4.2936,4.2969,4.302,4.3055,4.3078,4.3101,4.3143,4.3196,4.3169,4.3187,4.3175,4.3213,4.33,4.3178,4.3178,4.32,4.3396,4.3417,4.3434,4.3284,4.3286,4.3288,4.3394,0,4.2963,4.3052,4.3041,4.3126,4.3165,4.3134,4.3179,4.3197,4.3198,4.3232,4.3233,4.3271,4.3233,4.3244,4.3279,4.3282,4.3339,4.3274,4.3321,4.3323,4.3316,4.3452,4.3475,4.3574,4.3407,4.341,4.3411,0,4.3095,4.3123,4.3213,4.3229,4.3245,4.3285,4.3317,4.335,4.337,4.3368,4.339,4.3371,4.3422,4.3373,4.3442,4.3398,4.3417,4.3422,4.3425,4.3428,4.3372,4.3457,4.3605,4.3619,4.3433,4.3431,4.3429,0,4.3187,4.3248,4.3309,4.3322,4.3343,4.3372,4.3382,4.34,4.3422,4.3449,4.3463,4.3496,4.3514,4.354,4.3531,4.3496,4.3602,4.3552,4.3602,4.3602,4.3624,4.3622,4.3775,4.3639,4.3638,4.3638,4.3638,0,4.3302,4.3358,4.3351,4.3389,4.345,4.3437,4.3498,4.3504,4.352,4.3558,4.3533,4.3569,4.3556,4.3591,4.3585,4.3643,4.3652,4.3651,4.3649,4.3653,4.3653,4.3664,4.3656,4.3642,4.3641,4.364,4.364,0,4.3415,4.3413,4.3478,4.3493,4.3498,4.3542,4.3555,4.359,4.3591,4.3639,4.3649,4.365,4.369,4.3684,4.3729,4.3724,4.3797,4.3786,4.379,4.3787,4.3837,4.3832,4.4001,4.4023,4.3874,4.3875,4.3876,0,4.3488,4.3531,4.3551,4.3575,4.3587,4.3626,4.3649,4.3638,4.3663,4.369,4.3722,4.376,4.379,4.3855,4.3859,4.3893,4.3883,4.394,4.3887,4.389,4.3882,4.3879,4.3883,4.3949,4.3951,4.3953,4.3954,0,4.3618,4.3616,4.365,4.3684,4.3712,4.3738,4.3762,4.3783,4.3774,4.3803,4.3845,4.3868,4.3914,4.3952,4.3985,4.3994,4.3973,4.3971,4.3984,4.3987,4.3988,4.3987,4.3817,4.3966,4.3965,4.3964,4.3963,4.3963,4.3713,4.3749,4.3769,4.3808,4.3825,4.3848,4.3882,4.3887,4.3922,4.3959,4.3951,4.3997,4.4017,4.4058,4.4072,4.4107,4.4086,4.4106,4.411,4.4115,4.412,4.3983,4.4113,4.4113,4.4113,4.4112,4.4112,0,4.3841,4.3853,4.3889,4.3923,4.3954,4.3933,4.3958,4.3985,4.4026,4.4047,4.4077,4.4125,4.4162,4.417,4.4205,4.4232,4.4223,4.4242,4.4239,4.4241,4.4138,4.4122,4.4249,4.4249,4.4249,4.4249,4.4249,4.4248,4.3911,4.3971,4.3971,4.4039,4.405,4.4096,4.4113,4.4133,4.415,4.4205,4.4236,4.4241,4.4256,4.4293,4.4326,4.4327,4.434,4.4363,4.436,4.4262,4.4249,4.4236,4.4221,4.4366,4.4366,4.4461,4.4461,4.4462]},{"header":{"parameterUnit":"m.s-1","parameterCategory":1,"la1":30.2991,"la2":30.254,"lo1":-89.0895,"lo2":-89.0444,"dx":0.0017,"dy":0.0017,"nx":28,"ny":28,"refTime":"2022-12-23T15:00:00:Z","depth":0,"parameterNumber":3,"parameterNumberName":"V-component_of_WINDS"},"data":[0,0,0,0,0,0,0,0,0,0,0,0,0,0,0,0,0,0,0,0,0,0,0,0,0,0,0,0,0,0,0,0,0,0,0,0,0,0,0,0,0,0,0,0,0,0,0,0,0,0,0,0,0,0,0,0,0,0,-6.5061,-6.5063,0,-6.522,-6.5222,-6.5224,-6.5172,-6.5169,-6.5166,-6.5162,-6.5325,-6.5332,-6.5339,0,0,0,0,0,0,0,0,0,0,0,0,0,-6.4711,-6.4718,-6.5061,-6.5063,-6.5065,-6.522,-6.5222,-6.5224,-6.5173,-6.5169,-6.5165,-6.5161,-6.5322,-6.5331,-6.534,0,0,0,0,0,0,0,0,0,0,0,0,0,-6.4866,-6.472,-6.506,-6.5058,-6.5059,-6.522,-6.5222,-6.5225,-6.5174,-6.5169,-6.5164,-6.5159,-6.5319,-6.533,-6.5341,-6.5513,0,0,-6.5376,-6.538,0,0,0,0,0,0,0,0,-6.4857,-6.4879,-6.5056,-6.5058,-6.506,-6.5171,-6.5158,-6.5322,-6.5175,-6.513,-6.5162,-6.5156,-6.5278,-6.5292,-6.5333,-6.5521,-6.5528,-6.5377,-6.5383,-6.5388,-6.5391,0,0,0,0,0,0,0,-6.4846,-6.4872,-6.5124,-6.5059,-6.5061,-6.5048,-6.5065,-6.5189,-6.5231,-6.5134,-6.5131,-6.515,-6.5278,-6.5322,-6.5337,-6.553,-6.5376,-6.5386,-6.5393,-6.5398,-6.5867,-6.5873,0,0,0,0,0,0,-6.4835,-6.4863,-6.5119,-6.5129,-6.4944,-6.5059,-6.5077,-6.5141,-6.5229,-6.5238,-6.5154,-6.5147,-6.5306,-6.5323,-6.5342,-6.555,-6.5388,-6.5399,-6.5405,-6.5861,-6.5868,-6.5875,0,0,0,0,0,0,-6.4827,-6.4858,-6.5112,-6.4995,-6.5026,-6.507,-6.5142,-6.5147,-6.5191,-6.5245,-6.5252,-6.5193,-6.5302,-6.5326,-6.5471,-6.5554,-6.5404,-6.5414,-6.5855,-6.5864,-6.5872,-6.5966,0,0,0,0,0,0,-6.4818,-6.4856,-6.4922,-6.4997,-6.5033,-6.524,-6.5147,-6.5153,-6.5211,-6.5203,-6.5282,-6.5291,-6.53,-6.5455,-6.5482,-6.5567,-6.5423,-6.5847,-6.5859,-6.5869,-6.5956,-6.5977,-6.5995,0,0,0,0,0,-6.4805,-6.4942,-6.4925,-6.4957,-6.5116,-6.5244,-6.5265,-6.5273,-6.5218,-6.5285,-6.5319,-6.5288,-6.5541,-6.547,-6.5501,-6.559,-6.5842,-6.5855,-6.5868,-6.5947,-6.5972,-6.5994,0,0,0,0,0,0,-6.4875,-6.4951,-6.4934,-6.5099,-6.5166,-6.5235,-6.532,-6.53,-6.5384,-6.5373,-6.5379,-6.5398,-6.5547,-6.5583,-6.5503,-6.5761,-6.5683,-6.5703,-6.5733,-6.5757,-6.5777,-6.5765,-6.5432,0,0,0,0,0,-6.491,-6.5007,-6.5069,-6.5208,-6.5243,-6.5276,-6.5332,-6.5333,-6.5402,-6.5429,-6.5474,-6.5542,-6.5637,-6.5699,-6.5789,-6.596,-6.5977,-6.6037,-6.6056,-6.6072,-6.6089,-6.6183,-6.621,-6.5917,-6.5917,-6.5917,0,0,-6.4982,-6.5036,-6.5097,-6.5224,-6.5275,-6.5376,-6.53,-6.541,-6.5484,-6.5446,-6.5586,-6.5621,-6.5697,-6.5856,-6.5929,-6.5891,-6.6174,-6.6089,-6.6101,-6.6109,-6.6199,-6.6226,-6.6251,-6.5926,-6.5924,-6.5923,0,0,-6.5166,-6.5216,-6.5338,-6.5392,-6.5471,-6.5492,-6.5521,-6.5594,-6.5617,-6.5757,-6.573,-6.5819,-6.5982,-6.6037,-6.6087,-6.6292,-6.6267,-6.6321,-6.6423,-6.6514,-6.6537,-6.6558,-6.6631,-6.6657,-6.6337,-6.6338,-6.6338,0,-6.5246,-6.5397,-6.5403,-6.5516,-6.5572,-6.5542,-6.5666,-6.5717,-6.5822,-6.5861,-6.5818,-6.6022,-6.6071,-6.6242,-6.6292,-6.6333,-6.6367,-6.6312,-6.6533,-6.6554,-6.6573,-6.6643,-6.6671,-6.6344,-6.6343,-6.6342,-6.6342,0,-6.5491,-6.5597,-6.5686,-6.5788,-6.5854,-6.5972,-6.5996,-6.6062,-6.6057,-6.6083,-6.6226,-6.6284,-6.6385,-6.6426,-6.6422,-6.6598,-6.6572,-6.6531,-6.6453,-6.6607,-6.6673,-6.67,-6.6353,-6.635,-6.6349,-6.6347,0,0,-6.5724,-6.5828,-6.5861,-6.5907,-6.5992,-6.6073,-6.6189,-6.6289,-6.6346,-6.6419,-6.6516,-6.6655,-6.6618,-6.6674,-6.6676,-6.6756,-6.6915,-6.6705,-6.6707,-6.6742,-6.7112,-6.7142,-6.7173,-6.6898,-6.6903,-6.6907,-6.7105,0,-6.5915,-6.6119,-6.6128,-6.6314,-6.6412,-6.6384,-6.6485,-6.6548,-6.6575,-6.6662,-6.6691,-6.679,-6.6733,-6.6767,-6.6844,-6.6879,-6.6989,-6.6865,-6.6989,-6.6993,-6.6971,-6.7208,-6.724,-6.7424,-6.7131,-6.7136,-6.7139,0,-6.6165,-6.6247,-6.6442,-6.6514,-6.6555,-6.6646,-6.6738,-6.682,-6.6891,-6.6905,-6.6968,-6.6959,-6.7077,-6.6995,-6.7158,-6.7073,-6.7124,-6.7149,-6.7156,-6.7169,-6.7076,-6.7227,-6.7483,-6.7511,-6.7179,-6.7176,-6.7173,0,-6.6316,-6.6474,-6.6612,-6.6652,-6.6738,-6.6803,-6.6842,-6.6908,-6.6967,-6.7047,-6.7086,-6.7178,-6.723,-6.7301,-6.7317,-6.7255,-6.7481,-6.7399,-6.7496,-6.7495,-6.7545,-6.7541,-6.7814,-6.7577,-6.7577,-6.7576,-6.7576,0,-6.6528,-6.6649,-6.668,-6.6765,-6.69,-6.6909,-6.7042,-6.7076,-6.7135,-6.7226,-6.7207,-6.7293,-6.7308,-6.7397,-6.741,-6.7543,-6.7566,-6.7581,-6.7583,-6.7583,-6.7581,-6.7617,-6.7605,-6.7583,-6.7582,-6.758,-6.7579,0,-6.672,-6.6745,-6.6893,-6.6963,-6.6984,-6.708,-6.714,-6.7221,-6.7245,-6.7361,-6.7388,-6.7427,-6.7531,-6.7553,-6.7676,-6.7685,-6.7843,-6.7832,-6.782,-6.7819,-6.7914,-6.7905,-6.8219,-6.8261,-6.7997,-6.7999,-6.8001,0,-6.6854,-6.6946,-6.7026,-6.7086,-6.7128,-6.7224,-6.7285,-6.7297,-6.7361,-6.7448,-6.7519,-6.7621,-6.7703,-6.7869,-6.7909,-6.8002,-6.7994,-6.8098,-6.8008,-6.8005,-6.7996,-6.7991,-6.8,-6.8115,-6.8118,-6.812,-6.8122,0,-6.709,-6.7098,-6.7186,-6.7279,-6.7352,-6.7425,-6.7495,-6.7545,-6.7567,-6.7639,-6.7745,-6.7809,-6.7934,-6.8036,-6.813,-6.8169,-6.815,-6.815,-6.8177,-6.8178,-6.8167,-6.8175,-6.7867,-6.8143,-6.8141,-6.8139,-6.8138,-6.8137,-6.7257,-6.7338,-6.7407,-6.7506,-6.756,-6.7626,-6.7705,-6.774,-6.7829,-6.7932,-6.7934,-6.805,-6.8118,-6.8242,-6.8288,-6.8378,-6.8346,-6.8385,-6.8396,-6.8405,-6.8414,-6.8153,-6.8395,-6.8395,-6.8394,-6.8394,-6.8393,0,-6.7492,-6.7535,-6.7626,-6.7725,-6.7802,-6.7777,-6.7853,-6.792,-6.8022,-6.8088,-6.8169,-6.8291,-6.8389,-6.8435,-6.8532,-6.8596,-6.8589,-6.8621,-6.8616,-6.8626,-6.8437,-6.8404,-6.8624,-6.8624,-6.8624,-6.8624,-6.8624,-6.8624,-6.7624,-6.776,-6.7776,-6.7938,-6.798,-6.8094,-6.814,-6.82,-6.8252,-6.839,-6.8471,-6.8501,-6.8559,-6.866,-6.8749,-6.876,-6.8796,-6.8833,-6.884,-6.8663,-6.8639,-6.8617,-6.8586,-6.884,-6.8841,-6.9021,-6.9022,-6.9024]}]]